"datetime","# probes","# resolvers","can_ipv6","can_ipv6_prbs","can_tcp","can_tcp_prbs","can_tcp6","can_tcp6_prbs","does_ecs","does_ecs_prbs","does_flagday","does_flagday_prbs","does_rov4","does_rov4_prbs","does_rov6","does_rov6_prbs","does_qnamemin","doesnt_qnamemin","does_qnamemin_prbs","doesnt_qnamemin_prbs","does_nxdomain","doesnt_nxdomain","does_nxdomain_prbs","doesnt_nxdomain_prbs","has_ta_19036","hasnt_ta_19036","has_ta_19036_prbs","hasnt_ta_19036_prbs","has_ta_20326","hasnt_ta_20326","has_ta_20326_prbs","hasnt_ta_20326_prbs","can_rsamd5","cannot_rsamd5","broken_rsamd5","can_rsamd5_prbs","cannot_rsamd5_prbs","broken_rsamd5_prbs","can_dsa","cannot_dsa","broken_dsa","can_dsa_prbs","cannot_dsa_prbs","broken_dsa_prbs","can_rsasha1","cannot_rsasha1","broken_rsasha1","can_rsasha1_prbs","cannot_rsasha1_prbs","broken_rsasha1_prbs","can_dsansec3","cannot_dsansec3","broken_dsansec3","can_dsansec3_prbs","cannot_dsansec3_prbs","broken_dsansec3_prbs","can_rsansec3","cannot_rsansec3","broken_rsansec3","can_rsansec3_prbs","cannot_rsansec3_prbs","broken_rsansec3_prbs","can_rsasha256","cannot_rsasha256","broken_rsasha256","can_rsasha256_prbs","cannot_rsasha256_prbs","broken_rsasha256_prbs","can_rsasha512","cannot_rsasha512","broken_rsasha512","can_rsasha512_prbs","cannot_rsasha512_prbs","broken_rsasha512_prbs","can_eccgost","cannot_eccgost","broken_eccgost","can_eccgost_prbs","cannot_eccgost_prbs","broken_eccgost_prbs","can_ecdsa256","cannot_ecdsa256","broken_ecdsa256","can_ecdsa256_prbs","cannot_ecdsa256_prbs","broken_ecdsa256_prbs","can_ecdsa384","cannot_ecdsa384","broken_ecdsa384","can_ecdsa384_prbs","cannot_ecdsa384_prbs","broken_ecdsa384_prbs","can_ed25519","cannot_ed25519","broken_ed25519","can_ed25519_prbs","cannot_ed25519_prbs","broken_ed25519_prbs","can_ed448","cannot_ed448","broken_ed448","can_ed448_prbs","cannot_ed448_prbs","broken_ed448_prbs","can_gost","cannot_gost","broken_gost","can_gost_prbs","cannot_gost_prbs","broken_gost_prbs","can_sha384","cannot_sha384","broken_sha384","can_sha384_prbs","cannot_sha384_prbs","broken_sha384_prbs","is_internal","is_forwarding","is_external","is_internal_prbs","is_forwarding_prbs","is_external_prbs"
2017-06-20T23:59:59Z,220,396,394,218,396,220,390,217,3,22,0,0,0,0,0,0,2,394,1,219,0,394,0,218,0,0,0,0,0,0,0,0,371,14,10,203,23,21,389,6,0,215,29,0,395,0,0,220,13,0,387,8,0,213,32,0,395,1,0,219,14,0,395,1,0,219,14,0,394,1,0,219,13,0,15,379,2,15,211,1,395,0,0,220,12,0,396,0,0,220,13,0,0,394,2,0,219,1,0,394,2,0,219,1,15,379,2,24,210,1,396,0,0,220,13,0,364,12,20,200,17,32
2017-06-21T23:59:59Z,224,409,407,222,409,224,403,221,6,25,0,0,0,0,0,0,2,407,1,223,0,407,0,222,0,0,0,0,0,0,0,0,378,17,13,204,27,24,399,8,0,217,33,0,407,1,0,223,14,0,400,8,0,217,33,0,406,2,0,222,15,0,406,2,0,222,15,0,406,2,0,222,15,0,15,392,2,15,215,1,409,0,0,224,13,0,409,0,0,224,13,0,0,407,2,0,223,1,0,407,2,0,223,1,14,393,2,24,214,1,408,1,0,223,14,0,370,15,24,200,20,33
2017-06-22T23:59:59Z,227,409,407,225,409,227,401,224,2,22,0,0,0,0,0,0,3,406,2,225,0,407,0,225,0,0,0,0,0,0,0,0,379,16,13,206,25,25,398,9,0,219,33,0,407,1,0,226,14,0,399,9,0,219,33,0,408,0,0,226,12,0,408,0,0,226,12,0,407,1,0,225,13,0,15,392,2,15,218,1,409,0,0,227,13,0,409,0,0,227,13,0,0,407,2,0,226,1,0,407,2,0,226,1,16,391,2,25,216,1,408,1,0,226,14,0,368,15,26,202,20,33
2017-06-23T23:59:59Z,223,407,405,221,406,223,402,221,3,21,0,0,0,0,0,0,2,405,1,222,0,406,0,222,0,0,0,0,0,0,0,0,380,14,12,205,23,22,400,5,0,218,29,0,405,1,0,222,13,0,401,5,0,218,30,0,405,1,0,221,13,0,406,1,0,222,13,0,405,1,0,221,14,0,15,390,2,15,214,1,407,0,0,223,12,0,407,0,0,223,13,0,0,405,2,0,222,1,0,405,2,0,222,1,15,390,2,24,213,1,406,1,0,222,14,0,367,13,27,200,18,32
2017-06-24T23:59:59Z,225,408,406,223,407,225,400,223,3,23,0,0,0,0,0,0,2,406,1,224,0,406,0,223,0,0,0,0,0,0,0,0,380,15,12,206,25,24,399,8,0,218,33,0,406,1,0,224,13,0,400,7,0,219,31,0,406,1,0,223,13,0,407,1,0,224,13,0,406,1,0,223,14,0,15,391,2,15,216,1,408,0,0,225,13,0,408,0,0,225,13,0,0,406,2,0,224,1,0,406,2,0,224,1,14,392,2,24,215,1,407,1,0,224,13,0,368,14,26,201,19,33
2017-06-25T23:59:59Z,225,404,402,223,404,225,402,223,2,21,0,0,0,0,0,0,0,404,0,225,0,401,0,223,0,0,0,0,0,0,0,0,379,14,11,208,24,24,395,8,0,218,34,1,404,0,0,225,13,1,395,8,0,217,33,1,402,1,0,223,14,1,403,1,0,224,13,1,402,1,0,223,14,1,15,389,0,15,217,1,404,0,0,225,12,1,404,0,0,225,13,1,0,404,0,0,225,1,0,404,0,0,225,1,14,390,0,24,216,1,404,0,0,225,12,1,367,14,23,202,19,32
2017-06-26T23:59:59Z,227,411,409,225,411,227,388,224,3,24,0,0,0,0,0,0,2,409,1,226,0,408,0,224,0,0,0,0,0,0,0,0,381,16,13,207,26,24,399,10,0,219,35,0,409,2,0,225,15,0,400,9,0,219,34,0,408,2,0,224,15,0,407,3,0,225,16,0,407,2,0,224,15,0,15,394,2,15,218,1,410,0,0,227,13,0,411,0,0,227,13,0,0,409,2,0,226,1,0,409,2,0,226,1,14,395,2,24,217,1,408,2,0,226,15,0,373,14,24,204,20,33
2017-06-27T23:59:59Z,227,411,409,225,411,227,395,224,4,25,0,0,0,0,0,0,3,408,2,225,0,408,0,224,0,0,0,0,0,0,0,0,382,16,12,208,26,23,400,9,0,219,34,0,410,1,0,226,14,0,401,8,0,219,33,0,409,1,0,225,14,0,408,2,0,226,15,0,408,1,0,225,14,0,14,395,2,14,219,1,410,0,0,227,13,0,411,0,0,227,13,0,0,409,2,0,226,1,0,409,2,0,226,1,15,394,2,25,216,1,410,0,0,227,13,0,373,14,24,204,20,33
2017-06-28T23:59:59Z,228,413,411,226,413,228,403,226,3,20,0,0,0,0,0,0,5,408,3,225,0,410,0,225,0,0,0,0,0,0,0,0,384,15,13,210,23,23,405,7,0,223,30,1,412,1,0,227,12,1,404,7,0,221,30,0,410,2,0,226,13,1,410,2,0,227,13,1,410,1,0,226,12,1,15,394,4,15,218,3,411,1,0,228,12,1,413,0,0,228,11,1,0,409,4,1,226,2,0,409,4,0,226,3,14,395,4,23,217,3,410,2,0,227,13,1,373,13,27,205,18,32
2017-06-29T23:59:59Z,225,408,406,223,408,225,394,220,4,22,0,0,0,0,0,0,2,406,1,224,0,405,0,222,0,0,0,0,0,0,0,0,382,14,11,208,23,21,403,4,0,222,28,0,408,0,0,225,11,0,400,6,0,219,29,0,407,0,0,224,12,0,407,0,0,225,11,0,406,0,0,224,12,0,14,392,2,14,217,1,407,0,0,225,12,0,408,0,0,225,12,0,0,406,2,0,224,1,0,406,2,0,224,1,14,392,2,23,215,1,406,1,0,224,12,0,368,13,27,202,18,32
2017-06-30T23:59:59Z,227,411,409,225,411,227,401,225,3,21,0,0,0,0,0,0,2,409,1,226,0,408,0,224,0,0,0,0,0,0,0,0,383,15,12,209,23,23,403,7,0,222,31,1,410,1,0,226,12,1,404,5,0,222,30,1,409,1,0,225,13,1,409,1,0,226,13,1,409,1,0,226,12,1,14,395,2,14,219,2,410,0,0,227,11,1,411,0,0,227,12,1,0,409,2,0,226,2,0,409,2,0,226,2,14,395,2,24,217,2,409,1,0,226,12,1,370,13,28,203,18,33
2017-07-01T23:59:59Z,231,416,414,229,416,231,398,229,2,20,0,0,0,0,0,0,4,412,2,229,0,413,0,228,0,0,0,0,0,0,0,0,387,15,13,213,23,22,408,7,0,225,31,0,416,0,0,231,12,0,406,8,0,224,32,0,414,1,0,229,13,0,414,1,0,230,13,0,413,2,0,229,14,0,15,397,4,15,221,2,415,0,0,231,12,0,416,0,0,231,12,0,0,412,4,0,229,2,0,412,4,0,229,2,16,396,4,25,219,2,413,2,0,229,13,0,376,13,27,208,18,32
2017-07-02T23:59:59Z,230,418,416,228,418,230,397,224,3,20,0,0,0,0,0,0,4,414,2,228,0,415,0,227,0,0,0,0,0,0,0,0,389,15,13,212,23,23,411,6,0,225,29,1,418,0,0,230,12,1,409,7,0,223,31,1,416,1,0,228,13,1,416,1,0,229,13,1,416,1,0,229,13,1,14,400,4,14,221,3,417,0,0,230,12,1,418,0,0,230,12,1,0,414,4,0,228,3,0,414,4,0,228,3,14,400,4,23,219,3,416,1,0,229,12,1,375,13,30,206,18,33
2017-07-03T23:59:59Z,230,414,412,228,414,230,393,226,4,22,0,0,0,0,0,0,4,410,2,228,0,411,1,227,0,0,0,0,0,0,0,0,387,15,11,212,23,24,407,6,0,226,31,2,414,0,0,230,13,2,406,6,0,224,31,2,412,1,0,228,13,2,412,1,0,229,13,2,412,1,0,229,13,2,15,395,4,15,220,4,413,0,0,230,12,2,414,0,0,230,13,2,0,410,4,0,228,4,0,410,4,0,228,4,16,394,4,24,218,4,413,0,0,230,13,2,372,13,29,206,19,34
2017-07-04T23:59:59Z,232,418,416,230,418,232,392,228,3,23,0,0,0,0,0,0,3,415,2,230,0,415,1,229,0,0,0,0,0,0,0,0,390,16,11,214,25,25,408,9,0,226,33,2,416,2,0,231,14,2,410,6,0,226,30,2,416,1,0,230,13,2,416,1,0,231,13,2,416,1,0,231,13,2,15,401,2,15,223,3,417,1,0,232,13,2,418,0,0,232,12,2,0,416,2,0,231,3,0,416,2,0,231,3,15,401,2,25,222,3,416,1,0,232,13,2,377,13,28,208,19,35
2017-07-05T23:59:59Z,228,414,412,226,414,228,395,225,4,22,0,0,0,0,0,0,0,414,0,228,0,411,1,225,0,0,0,0,0,0,0,0,391,14,8,212,23,23,409,4,0,225,28,2,414,0,0,228,12,2,407,6,0,224,31,2,413,0,0,227,11,2,413,0,0,228,11,2,413,0,0,228,12,2,15,399,0,15,220,2,414,0,0,228,11,2,414,0,0,228,12,2,0,414,0,0,228,2,0,414,0,0,228,2,15,399,0,25,219,2,413,0,0,228,12,2,372,13,29,204,18,34
2017-07-06T23:59:59Z,228,418,416,226,418,228,365,215,3,22,0,0,0,0,0,0,1,417,1,227,0,415,1,225,0,0,0,0,0,0,0,0,394,15,8,212,23,22,410,7,0,223,31,1,417,1,0,228,12,1,411,6,0,224,30,1,416,1,0,227,12,1,416,1,0,228,12,1,417,0,0,228,11,1,13,405,0,13,222,1,417,1,0,228,12,1,418,0,0,228,11,1,0,418,0,0,228,1,0,418,0,0,228,1,16,402,0,25,218,1,417,0,0,228,11,1,375,13,30,204,18,34
2017-07-07T23:59:59Z,226,417,415,224,417,226,415,224,4,22,0,0,0,0,0,0,1,416,1,225,0,414,1,223,0,0,0,0,0,0,0,0,392,14,10,210,22,23,412,5,0,223,29,1,417,0,0,226,11,1,412,4,0,223,27,2,415,1,0,225,12,1,416,0,0,226,11,2,415,1,0,226,12,1,13,404,0,13,220,1,416,1,0,226,12,1,417,0,0,226,11,1,0,417,0,0,226,1,0,417,0,0,226,1,14,403,0,24,218,1,416,0,0,226,11,1,377,13,27,203,18,33
2017-07-08T23:59:59Z,228,419,417,226,419,228,416,226,4,22,0,0,0,0,0,0,0,419,0,228,0,415,1,224,0,0,0,0,0,0,0,0,394,14,10,212,23,23,414,5,0,225,30,1,419,0,0,228,11,1,414,4,0,225,28,1,418,0,0,227,11,1,418,0,0,228,12,1,418,0,0,228,12,1,14,405,0,14,221,1,419,0,0,228,12,1,419,0,0,228,12,1,0,419,0,0,228,1,0,419,0,0,228,1,13,406,0,23,220,1,418,0,0,228,11,1,379,13,27,205,18,33
2017-07-09T23:59:59Z,230,423,421,228,423,230,419,227,1,20,0,0,0,0,0,0,0,423,0,230,0,420,1,227,0,0,0,0,0,0,0,0,396,15,11,213,23,24,417,6,0,226,30,1,423,0,0,230,11,1,417,5,0,226,28,1,420,2,0,228,13,1,420,2,0,229,13,1,421,1,0,229,12,1,14,409,0,14,223,1,423,0,0,230,11,1,423,0,0,230,11,1,0,423,0,0,230,1,0,423,0,0,230,1,13,410,0,23,222,1,422,0,0,230,11,1,383,13,27,207,18,33
2017-07-10T23:59:59Z,233,429,427,231,429,233,425,231,2,22,0,0,0,0,0,0,1,428,1,232,0,425,1,229,0,0,0,0,0,0,0,0,403,16,9,217,25,23,423,6,0,229,32,1,429,0,0,233,12,1,423,5,0,229,31,1,426,2,0,231,14,1,426,2,0,232,14,1,427,1,0,232,13,1,14,415,0,14,226,1,428,1,0,233,13,1,429,0,0,233,12,1,0,429,0,0,233,1,0,429,0,0,233,1,16,413,0,26,223,1,427,1,0,233,13,1,390,13,26,210,20,33
2017-07-11T23:59:59Z,231,422,420,229,422,231,418,228,3,22,0,0,0,0,0,0,0,422,0,231,0,419,1,228,0,0,0,0,0,0,0,0,398,15,8,214,24,22,417,5,0,227,29,1,422,0,0,231,11,1,416,5,0,227,30,1,422,0,0,231,12,1,421,0,0,231,11,1,421,0,0,231,12,1,15,407,0,15,223,1,422,0,0,231,12,1,422,0,0,231,12,1,0,422,0,0,231,1,0,422,0,0,231,1,16,406,0,25,221,1,420,1,0,230,12,1,382,13,27,208,18,33
2017-07-12T23:59:59Z,230,421,419,228,421,230,418,228,2,21,0,0,0,0,0,0,0,421,0,230,0,418,1,227,0,0,0,0,0,0,0,0,397,14,9,214,22,22,416,5,0,227,29,1,420,1,0,230,12,1,413,7,0,226,31,1,421,0,0,230,11,1,420,0,0,230,11,1,420,0,0,230,11,1,15,406,0,15,222,1,421,0,0,230,11,1,421,0,0,230,11,1,0,421,0,0,230,1,0,421,0,0,230,1,14,407,0,24,221,1,419,1,0,229,12,1,381,13,27,207,18,33
2017-07-13T23:59:59Z,232,419,417,230,419,232,416,230,2,21,0,0,0,0,0,0,1,418,1,231,0,415,1,229,0,0,0,0,0,0,0,0,393,15,10,214,24,23,414,5,0,228,31,1,419,0,0,232,13,1,413,5,0,228,31,1,418,1,0,231,13,1,417,1,0,231,14,1,418,0,0,232,12,1,15,404,0,15,224,1,419,0,0,232,13,1,419,0,0,232,13,1,0,419,0,0,232,1,0,419,0,0,232,1,15,404,0,25,222,1,417,1,0,230,13,1,377,14,28,208,19,34
2017-07-14T23:59:59Z,231,420,418,229,420,231,417,229,5,23,0,0,0,0,0,0,0,420,0,231,0,415,1,226,0,0,0,0,0,0,0,0,394,14,11,213,23,24,414,6,0,227,31,1,420,0,0,231,12,1,415,4,0,228,29,1,419,1,0,231,13,1,419,0,0,231,12,1,418,1,0,231,13,1,14,406,0,14,224,1,419,1,0,231,13,1,420,0,0,231,12,1,0,420,0,0,231,1,0,420,0,0,231,1,15,405,0,25,221,1,419,0,0,230,12,1,379,14,27,207,19,34
2017-07-15T23:59:59Z,229,418,416,227,418,229,415,227,3,22,0,0,0,0,0,0,2,416,1,228,0,415,0,226,0,0,0,0,0,0,0,0,389,15,13,211,24,23,412,6,0,225,31,0,417,1,0,228,13,0,410,7,0,224,31,0,417,1,0,228,12,0,416,1,0,228,12,0,416,1,0,228,13,0,15,401,2,16,220,1,418,0,0,229,12,0,418,0,0,229,12,0,0,416,2,0,228,1,0,416,2,0,228,1,17,399,2,26,217,1,416,1,0,227,12,0,377,14,27,205,19,34
2017-07-16T23:59:59Z,232,421,418,229,421,232,417,229,6,25,0,0,0,0,0,0,3,418,2,230,0,417,0,228,0,0,0,0,0,0,0,0,388,18,14,212,25,25,413,8,0,227,32,0,420,1,0,232,12,0,412,8,0,228,32,0,420,1,0,231,12,0,419,1,0,231,12,0,418,2,0,231,13,0,15,404,2,15,223,1,421,0,0,232,11,0,421,0,0,232,11,0,0,419,2,0,231,1,0,419,2,0,231,1,16,403,2,27,221,1,419,1,0,231,12,0,378,15,28,207,20,35
2017-07-17T23:59:59Z,231,417,414,228,417,231,413,228,6,26,0,0,0,0,0,0,2,415,1,230,0,414,0,228,0,0,0,0,0,0,0,0,383,19,14,208,26,26,409,8,0,225,33,0,416,1,0,231,13,0,407,9,0,225,34,0,416,1,0,231,13,0,415,1,0,231,13,0,415,1,0,231,13,0,14,401,2,14,223,1,417,0,0,231,12,0,417,0,0,231,12,0,0,415,2,0,230,1,0,415,2,0,230,1,18,397,2,28,219,1,415,1,0,230,13,0,375,15,27,206,21,36
2017-07-18T23:59:59Z,230,416,413,227,416,230,411,227,4,24,0,0,0,0,0,0,3,413,2,228,0,413,0,227,0,0,0,0,0,0,0,0,385,19,11,209,26,24,410,6,0,226,30,0,415,1,0,230,12,0,409,6,0,226,30,0,416,0,0,230,11,0,414,1,0,230,12,0,415,0,0,230,11,0,15,399,2,15,221,1,416,0,0,230,11,0,416,0,0,230,11,0,0,414,2,0,229,1,0,414,2,0,229,1,16,398,2,27,219,1,415,0,0,229,11,0,373,15,28,205,20,35
2017-07-19T23:59:59Z,229,413,410,226,413,229,409,226,3,23,0,0,0,0,0,0,1,412,1,228,0,409,0,225,0,0,0,0,0,0,0,0,385,17,10,211,27,22,407,6,0,225,33,0,413,0,0,229,12,0,406,6,0,225,33,0,413,0,0,229,13,0,412,0,0,229,12,0,412,0,0,229,12,0,14,399,0,14,222,0,413,0,0,229,13,0,413,0,0,229,13,0,0,413,0,0,229,0,0,413,0,0,229,0,17,396,0,28,218,0,412,0,0,228,12,0,370,15,28,204,20,35
2017-07-20T23:59:59Z,230,414,411,227,414,230,409,227,5,25,0,0,0,0,0,0,0,414,0,230,0,409,0,225,0,0,0,0,0,0,0,0,387,15,11,212,25,23,409,5,0,226,31,0,414,0,0,230,12,0,407,6,0,225,33,0,413,1,0,229,13,0,412,1,0,229,13,0,412,1,0,229,14,0,15,399,0,15,222,0,414,0,0,230,13,0,414,0,0,230,13,0,0,414,0,0,230,0,0,414,0,0,230,0,15,399,0,26,221,0,412,1,0,228,13,0,373,14,27,206,19,35
2017-07-21T23:59:59Z,231,416,413,228,416,231,412,228,4,24,0,0,0,0,0,0,2,414,1,230,0,412,0,227,0,0,0,0,0,0,0,0,383,17,15,210,27,26,410,6,0,227,34,0,416,0,0,231,14,0,410,5,0,227,33,0,416,0,0,231,13,0,415,0,0,231,13,0,415,0,0,231,14,0,14,400,2,14,223,1,416,0,0,231,13,0,416,0,0,231,14,0,0,414,2,0,230,1,0,414,2,0,230,1,15,399,2,26,220,1,415,0,0,230,13,0,374,14,28,207,19,36
2017-07-22T23:59:59Z,230,416,413,227,416,230,411,227,2,23,0,0,0,0,0,0,3,413,2,228,0,412,0,226,0,0,0,0,0,0,0,0,383,18,14,209,27,25,411,5,0,226,31,0,416,0,0,230,12,0,409,6,0,225,32,0,414,2,0,229,14,0,414,1,0,229,13,0,414,1,0,229,13,0,15,399,2,15,221,1,415,1,0,230,13,0,416,0,0,230,12,0,0,414,2,0,229,1,0,414,2,0,229,1,14,400,2,25,220,1,414,1,0,229,13,0,374,14,28,206,19,35
2017-07-23T23:59:59Z,230,415,412,227,415,230,411,227,3,22,0,0,0,0,0,0,2,413,1,229,0,412,0,227,0,0,0,0,0,0,0,0,385,16,13,210,25,25,409,6,0,225,33,0,415,0,0,230,13,0,407,7,0,224,34,0,414,1,0,229,14,0,413,1,0,229,13,0,413,1,0,229,14,0,15,398,2,15,221,1,415,0,0,230,13,0,415,0,0,230,13,0,0,413,2,0,229,1,0,413,2,0,229,1,16,397,2,27,218,1,414,0,0,229,13,0,373,14,28,206,19,35
2017-07-24T23:59:59Z,233,420,417,230,420,233,415,229,4,24,0,0,0,0,0,0,2,418,1,232,0,416,0,229,0,0,0,0,0,0,0,0,388,17,14,213,26,25,414,6,0,229,32,0,419,1,0,233,13,0,413,6,0,229,32,0,419,1,0,233,13,0,419,0,0,233,12,0,418,1,0,232,13,0,15,403,2,15,224,1,420,0,0,233,12,0,420,0,0,233,12,0,0,418,2,0,232,1,0,418,2,0,232,1,17,401,2,27,221,1,418,1,0,231,13,0,378,14,28,209,19,35
2017-07-25T23:59:59Z,233,419,416,230,419,233,414,230,3,25,0,0,0,0,0,0,3,416,2,231,0,416,0,230,0,0,0,0,0,0,0,0,386,18,14,211,29,25,412,7,0,227,35,0,418,1,0,232,14,0,410,8,0,226,36,0,418,1,0,232,14,0,417,1,0,232,14,0,417,1,0,232,14,0,15,402,2,15,224,1,419,0,0,233,13,0,419,0,0,233,14,0,0,417,2,0,232,1,0,417,2,0,232,1,17,400,2,28,220,1,418,0,0,232,14,0,377,14,28,209,19,36
2017-07-26T23:59:59Z,232,418,415,229,418,232,413,229,1,22,0,0,0,0,0,0,3,415,2,230,0,415,0,229,0,0,0,0,0,0,0,0,385,18,14,211,28,25,410,8,0,226,35,0,416,2,0,231,15,0,409,8,0,227,35,0,418,0,0,232,13,0,417,0,0,232,13,0,417,0,0,232,13,0,16,400,2,16,222,1,417,1,0,232,14,0,418,0,0,232,13,0,0,416,2,0,231,1,0,416,2,0,231,1,18,398,2,29,218,1,417,0,0,231,13,0,376,14,28,208,19,36
2017-07-27T23:59:59Z,230,411,408,227,411,230,407,227,3,22,0,0,0,0,0,0,2,409,1,229,0,407,1,226,0,0,0,0,0,0,0,0,382,17,11,211,26,24,404,7,0,226,33,1,410,1,0,230,13,0,405,5,0,226,31,1,410,1,0,230,13,0,408,2,0,229,14,0,409,1,0,229,13,0,15,394,2,15,221,2,410,1,0,230,13,0,411,0,0,230,12,0,0,409,2,0,229,1,0,409,2,0,229,1,17,392,2,29,218,1,409,1,0,229,13,1,370,14,27,206,19,35
2017-07-28T23:59:59Z,228,410,407,225,410,228,406,225,4,24,0,0,0,0,0,0,0,410,0,228,0,407,0,225,0,0,0,0,0,0,0,0,379,17,13,208,25,26,403,7,0,223,32,0,410,0,0,228,12,0,404,5,0,224,31,0,410,0,0,228,11,0,410,0,0,228,12,0,409,0,0,228,11,0,15,395,0,15,220,0,410,0,0,228,12,0,410,0,0,228,12,0,0,410,0,0,228,0,0,410,0,0,228,0,17,393,0,29,217,0,409,0,0,227,11,0,369,14,27,204,19,36
2017-07-29T23:59:59Z,228,409,406,225,409,228,405,225,3,21,0,0,0,0,0,0,1,408,1,227,0,406,0,225,0,0,0,0,0,0,0,0,378,19,11,208,27,22,404,5,0,224,29,0,407,2,0,227,13,0,403,5,0,224,29,0,407,2,0,227,13,1,408,1,0,227,12,0,407,1,0,227,12,0,16,393,0,16,219,0,408,1,0,228,12,0,409,0,0,228,11,0,0,409,0,0,228,0,0,409,0,0,228,0,15,394,0,25,218,1,407,1,0,226,12,0,368,14,27,204,19,34
2017-07-30T23:59:59Z,228,409,406,225,409,228,405,225,2,22,0,0,0,0,0,0,1,408,1,227,0,406,0,225,0,0,0,0,0,0,0,0,378,17,13,209,26,24,402,7,0,223,32,0,408,1,0,228,13,0,400,8,0,223,33,0,408,1,0,227,13,0,408,1,0,227,13,0,406,2,0,227,14,0,16,393,0,16,219,0,408,1,0,228,13,0,409,0,0,228,12,0,0,409,0,0,228,0,0,409,0,0,228,0,16,393,0,26,217,0,407,1,0,226,13,0,367,14,28,204,19,35
2017-07-31T23:59:59Z,227,406,403,224,405,226,401,223,4,23,0,0,0,0,0,0,0,406,0,227,0,402,0,223,0,0,0,0,0,0,0,0,378,17,11,208,27,23,400,6,0,223,32,0,405,1,0,226,14,0,400,5,0,223,30,0,405,1,0,226,14,0,405,1,0,226,13,0,404,1,0,226,13,0,15,391,0,15,219,0,406,0,0,227,12,0,406,0,0,227,13,0,0,406,0,0,227,0,0,406,0,0,227,0,15,391,0,25,217,0,404,0,1,225,13,1,364,14,28,203,19,34
2017-08-01T23:59:59Z,229,408,405,226,408,229,403,225,5,23,0,0,0,0,0,0,2,406,1,228,0,405,0,226,0,0,0,0,0,0,0,0,380,17,11,209,27,23,401,7,0,223,33,0,407,1,0,228,13,0,400,7,0,224,33,0,408,0,0,229,13,0,408,0,0,229,12,0,407,0,0,229,12,0,15,391,2,15,220,1,408,0,0,229,12,0,408,0,0,229,13,1,0,406,2,0,228,1,0,406,2,0,228,2,16,390,2,26,217,1,407,0,0,228,12,0,367,14,27,205,19,33
2017-08-02T23:59:59Z,229,406,403,226,406,229,402,226,2,21,0,0,0,0,0,0,2,404,1,228,0,403,0,226,0,0,0,0,0,0,0,0,378,16,12,209,25,24,401,5,0,225,31,0,406,0,0,229,12,0,399,6,0,224,32,0,405,1,0,228,13,0,405,1,0,228,13,0,404,1,0,228,13,0,16,388,2,16,219,1,406,0,0,229,13,0,406,0,0,229,13,0,0,404,2,0,228,1,0,404,2,0,228,1,15,389,2,25,218,1,405,0,0,228,13,0,365,14,27,205,19,33
2017-08-03T23:59:59Z,229,410,407,226,410,229,406,226,2,20,0,0,0,0,0,0,3,407,2,227,0,407,0,226,0,0,0,0,0,0,0,0,382,17,11,210,26,22,405,5,0,225,30,0,409,1,0,228,13,0,403,6,0,225,31,0,408,2,0,228,14,0,409,1,0,228,13,0,407,2,0,228,14,0,15,393,2,15,220,1,409,1,0,229,13,0,410,0,0,229,12,0,0,408,2,0,228,1,0,408,2,0,228,1,16,392,2,26,218,1,407,2,0,227,14,0,369,14,27,205,19,33
2017-08-04T23:59:59Z,232,412,409,229,412,232,407,229,2,21,0,0,0,0,0,0,2,410,1,231,0,409,0,229,0,0,0,0,0,0,0,0,382,17,13,212,26,24,403,9,0,225,34,0,410,2,0,231,14,0,404,7,0,226,32,0,410,2,0,231,14,0,411,1,0,231,13,0,409,2,0,230,14,0,15,395,2,15,223,1,410,2,0,231,14,0,412,0,0,232,12,0,0,410,2,0,231,1,0,410,2,0,231,1,15,395,2,25,221,1,409,2,0,230,14,0,371,14,27,208,19,33
2017-08-05T23:59:59Z,231,409,406,228,409,231,405,228,2,22,0,0,0,0,0,0,2,407,1,230,0,406,0,228,0,0,0,0,0,0,0,0,382,16,11,212,26,24,404,5,0,227,32,0,409,0,0,231,13,0,403,5,0,227,32,0,408,1,0,230,13,0,408,1,0,230,14,0,407,1,0,230,14,0,16,391,2,16,222,1,409,0,0,231,13,0,409,0,0,231,13,0,0,407,2,0,230,1,0,407,2,0,230,1,18,389,2,28,217,1,408,0,0,230,13,1,369,13,27,208,18,34
2017-08-06T23:59:59Z,230,406,403,227,406,230,402,227,5,25,0,0,0,0,0,0,0,406,0,230,0,403,0,227,0,0,0,0,0,0,0,0,378,18,10,211,28,23,400,6,0,226,32,0,404,2,0,229,15,0,399,6,0,225,32,0,405,1,0,229,14,0,404,2,0,229,15,0,403,2,0,229,15,0,15,391,0,15,222,0,404,2,0,229,15,0,406,0,0,230,13,0,0,406,0,0,230,0,0,406,0,0,230,0,17,389,0,27,219,0,404,1,0,229,14,0,365,15,26,205,20,33
2017-08-07T23:59:59Z,226,400,397,223,400,226,395,223,2,22,0,0,0,0,0,0,0,400,0,226,0,397,0,223,0,0,0,0,0,0,0,0,375,16,9,209,27,22,396,4,0,223,30,0,400,0,0,226,13,0,395,4,0,223,30,0,400,0,0,226,13,0,400,0,0,226,14,0,399,0,0,226,14,0,14,386,0,14,219,0,400,0,0,226,14,0,400,0,0,226,14,0,0,400,0,0,226,0,0,400,0,0,226,0,15,385,0,26,217,0,399,0,0,225,13,0,362,13,25,202,19,33
2017-08-08T23:59:59Z,230,407,404,227,407,230,403,227,2,24,0,0,0,0,0,0,2,405,1,229,0,404,0,227,0,0,0,0,0,0,0,0,379,16,12,211,27,24,403,4,0,227,31,0,407,0,0,230,15,0,400,6,0,225,33,0,406,1,0,229,15,0,406,1,0,229,15,0,405,1,0,229,16,0,14,391,2,14,222,1,406,0,1,229,14,1,407,0,0,230,15,0,0,405,2,0,229,1,0,405,2,0,229,1,14,391,2,25,220,1,406,0,0,229,14,0,366,13,28,205,20,34
2017-08-09T23:59:59Z,231,408,405,228,408,231,403,228,3,24,0,0,0,0,0,0,3,405,2,229,0,404,0,227,0,0,0,0,0,0,0,0,381,17,10,213,29,23,402,6,0,227,34,0,407,1,0,230,16,0,402,6,0,227,34,0,407,1,0,230,16,0,406,2,0,230,17,0,407,1,0,230,16,0,15,391,2,15,222,1,407,1,0,231,16,0,408,0,0,231,15,0,0,406,2,0,230,1,1,405,2,1,229,1,15,391,2,26,220,1,405,1,1,228,16,1,367,13,28,206,21,36
2017-08-10T23:59:59Z,227,401,398,224,401,227,397,224,4,23,0,0,0,0,0,0,2,399,1,226,0,398,0,224,0,0,0,0,0,0,0,0,372,16,13,209,26,24,396,4,1,224,30,1,401,0,0,227,13,0,397,4,0,224,30,0,400,0,1,226,13,1,400,0,1,226,14,1,401,0,0,227,14,0,14,385,2,14,219,1,401,0,0,227,13,0,401,0,0,227,14,0,1,398,2,1,225,1,0,399,2,0,226,1,16,383,2,26,216,1,399,0,1,225,13,1,359,13,29,202,18,35
2017-08-11T23:59:59Z,227,402,399,224,402,227,398,224,3,22,0,0,0,0,0,0,3,399,2,225,0,399,0,224,0,0,0,0,0,0,0,0,372,17,13,209,27,22,398,4,0,224,29,0,401,1,0,227,14,0,396,6,0,222,31,0,402,0,0,227,13,0,401,1,0,227,14,0,402,0,0,227,13,0,14,386,2,14,219,1,402,0,0,227,13,0,402,0,0,227,13,0,0,400,2,0,226,1,0,400,2,0,226,1,15,385,2,25,217,1,401,0,0,226,13,0,361,13,28,202,18,35
2017-08-12T23:59:59Z,229,402,399,226,402,229,398,226,2,22,0,0,0,0,0,0,2,400,1,228,0,399,0,226,0,0,0,0,0,0,0,0,374,17,11,210,28,23,396,6,0,224,33,1,402,0,0,229,15,1,398,4,0,226,31,1,402,0,0,229,15,1,402,0,0,229,15,1,402,0,0,229,15,1,15,385,2,15,220,2,402,0,0,229,14,1,402,0,0,229,15,1,0,400,2,0,228,2,0,400,2,0,228,2,16,384,2,26,218,2,401,0,0,228,15,0,361,13,28,204,19,36
2017-08-13T23:59:59Z,230,410,407,227,410,230,405,226,5,24,0,0,0,0,0,0,2,408,1,229,0,407,0,227,0,0,0,0,0,0,0,0,379,17,14,211,26,24,401,9,0,224,34,0,409,1,0,230,14,0,402,8,0,224,33,0,409,1,0,230,14,0,409,1,0,230,14,0,410,0,0,230,13,0,13,395,2,13,222,1,409,1,0,230,14,0,410,0,0,230,13,0,0,408,2,0,229,1,0,408,2,0,229,1,16,391,3,26,217,2,408,1,0,229,14,0,368,13,29,205,18,35
2017-08-14T23:59:59Z,232,411,408,229,411,232,407,229,3,22,0,0,0,0,0,0,2,409,1,231,0,408,0,229,0,0,0,0,0,0,0,0,382,16,13,213,26,23,407,4,0,228,30,0,411,0,0,232,14,0,408,3,0,229,29,0,411,0,0,232,13,0,411,0,0,232,13,0,411,0,0,232,13,0,15,394,2,15,222,1,411,0,0,232,13,0,411,0,0,232,14,0,0,409,2,0,231,1,0,409,2,0,231,1,14,395,2,24,221,1,410,0,0,231,13,0,368,14,29,207,19,34
2017-08-15T23:59:59Z,233,419,416,230,419,233,415,230,4,23,0,0,0,0,0,0,2,417,1,232,0,416,0,230,0,0,0,0,0,0,0,0,388,17,14,213,26,24,413,6,0,229,30,0,419,0,0,233,13,0,415,4,0,230,29,0,419,0,0,233,13,0,419,0,0,233,13,0,419,0,0,233,13,0,15,402,2,15,223,1,419,0,0,233,13,0,419,0,0,233,13,0,0,417,2,0,232,1,0,417,2,0,232,1,15,402,2,25,221,1,418,0,0,232,12,0,375,14,30,207,19,34
2017-08-16T23:59:58Z,233,419,416,230,419,233,415,230,4,22,0,0,0,0,0,0,2,417,1,232,0,416,1,230,0,0,0,0,0,0,0,0,387,19,13,212,29,23,412,7,0,228,32,0,418,1,0,232,14,0,414,5,0,229,30,0,418,1,0,232,14,0,417,2,0,232,15,0,418,1,0,232,14,0,13,404,2,13,225,1,419,0,0,233,13,0,419,0,0,233,13,0,0,417,2,1,232,1,0,417,2,0,232,1,15,402,2,24,222,1,417,1,0,232,14,0,375,15,29,206,21,35